STARLINK-31848, 59784

Orbit data source: Space-Track

STARLINK-31848, 59784 is a payload satellite owned by SpaceX/Seattle (US) in LEO that was launched on Sat, 18 May 2024 UTC via an FALCON 9 launch vehicle from the Air Force Eastern Test Range (AFETR). Payload-class satellites include a variety of spacecraft equipped with specific instruments for various scientific and technological missions. These include communications satellites like Starlink; space stations such as the ISS; scientific satellites like the Hubble; Earth observation satellites from companies like Planet Labs, Umbra, and HawkEye 360; GPS; miniature CubeSats for education and research; and military/defense satellites.

Loading next visibility...
Identifier
59784, 2024-093C
Orbit
LEO
Country
Flag of USUS
Related business
Manufacturer
SpaceX/Seattle
Mission
Operational spacecraft
Bus & Motor
STARLINK V2M, Unknown motor
Mass
730 kg wet, ~700 kg dry
Launch date (UTC)
2024-05-18 (1 year ago)
Launch vehicle
FALCON 9
Launch site
Air Force Eastern Test Range (AFETR)
Object type
Payload
Rocket body
Debris
Shape & HBR
Unknown
Radar Cross Section
Large (>1 m²)

Expand to show TLE details & history
Last TLE update: 21 hours ago

TLE from 21 hours ago
0 STARLINK-31848
1 59784U 24093C   25257.98297957  .00001111  00000-0  49896-4 0  9992
2 59784  43.0036 117.7144 0001140 282.7200  77.3524 15.27570087 75869
Epoch: 2025-09-14T23:35Z
TLE epoch observation values (Epoch: 2025-09-14T23:35:29.434Z)
Latitude
-0.00005°
Longitude
129.64754°
Altitude
482.683 km
Speed
7.626 km/s
True Right ascension
07h 50m 51s
True Declination
0° 00' 00"
Sunlit
Object was in daylight at epoch
Visualization orbit readout
Latitude
Unknown
Longitude
Unknown
Altitude
Unknown
Speed
Unknown
Apparent Right ascension
Unknown
Apparent Declination
Unknown
Sunlit
N/A
Visualization observer readout
Local Sidereal Time
12:57:58
Azimuth
Unknown
Elevation
Unknown
Doppler factor
Unknown
Orbital elements
Apogee altitude
485.806 km
Perigee altitude
484.241 km
Semi-major axis
6,863.16 km
Eccentricity
0.00011
Inclination
43.0036°
RAAN
117.7144°
Arg. of periapsis
282.72°
True anomaly
77.36515°
Mean anomaly
77.3524°
Eccentric anomaly
77.35877°
Mean motion
3.81731 °/min
Orbital period
94.31 mins
BSTAR
0.000049896
Loading maneuver chart data...
Computing Atmospheric mass density...
Loading historical data...
Loading historical data...
Loading historical data...
Loading historical data...
Loading historical data...
Loading historical data...
Loading historical data...

Documentation

Showing up to 5 results
|